Other Public Products
Issued by NWS Grand Forks, ND

Home | Current Version | Previous Version | Text Only | Print | Product List | Glossary On
Versions: 1 2 3 4 5 6 7 8 9 10 11 12 13 14 15 16 17 18 19 20 21 22 23 24 25 26 27 28 29 30 31 32 33 34 35 36 37 38 39 40 41 42 43 44 45 46 47 48 49 50
000
FPUS83 KFGF 301431
OPUFGF
PRAIRIE TO PINES WEATHER ROUNDUP
NATIONAL WEATHER SERVICE EASTERN NORTH DAKOTA/GRAND FORKS ND
900 AM CDT MON MAY 30 2016

 **SATELLITE DATA USED TO AUGMENT SKY COVER AT AUTOMATED STATIONS**
 *****  WEATHER ACROSS EASTERN NORTH DAKOTA  *****

CITY           SKY/WX    TMP DP  RH WIND       PRES   REMARKS
GRAND FORKS    CLOUDY    67  52  58 W9        29.93R THUNDER
GRAND FORKS AF CLOUDY    64  52  63 SE2       29.92R
GRAND CITY NWS   N/A     59 N/A N/A E6          N/A
BUXTON           N/A     71  59  66 S3          N/A
DEVILS LAKE    SUNNY     65  53  65 SW6       29.91F
FARGO          SUNNY     67  52  58 S8        29.93F
WAHPETON ARPT  SUNNY     70  48  46 CALM      29.95F
$$

 *****  WEATHER ACROSS CENTRAL AND WESTERN NORTH DAKOTA  *****

CITY           SKY/WX    TMP DP  RH WIND       PRES   REMARKS
JAMESTOWN      SUNNY     68  55  63 S6        29.91F
BISMARCK       SUNNY     63  56  78 E6        29.91F
MINOT          MOSUNNY   67  52  58 CALM      29.89S
MINOT AFB      MOSUNNY   63  49  59 NE1       29.88S
GARRISON         N/A     61  53  75 S8        29.90F
WILLISTON      CLOUDY    56  46  69 SW6       29.91R
DICKINSON      CLOUDY    60  51  72 SE8       29.88F
HETTINGER      PTSUNNY   64  55  72 E7        29.90F
$$

 *****  OTHER OBSERVATIONS NORTHEAST NORTH DAKOTA  *****

CITY           SKY/WX    TMP DP  RH WIND       PRES   REMARKS
WALHALLA       FAIR      72  68  88 CALM      29.90F
LANGDON        FAIR      70  50  49 S9        29.92S
CAVALIER       FAIR      64  54  68 S3        29.90F
GRAFTON        FAIR      66  52  59 VRB3      29.92F
CANDO          FAIR      66  54  63 CALM      29.93S
FORT TOTTEN      N/A     66  53  63 S5        29.95S
ROLLA          FAIR      68  43  40 SW8       29.93S
RUGBY          FAIR      64  52  63 W3        29.90F
 ***** THE ABOVE OBSERVATIONS ARE NON NWS ARE NOT QUALITY
        CONTROLLED AND MAY MIS-REPORT RAIN FOR SNOW...
$$

 *****  OTHER OBSERVATIONS SOUTHEAST NORTH DAKOTA *****

CITY           SKY/WX    TMP DP  RH WIND       PRES   REMARKS
COOPERSTOWN    NOT AVBL
VALLEY CITY    FAIR      68  59  73 S5        29.94S
OAKES            N/A    N/A N/A N/A MISG        N/A
GWINNER        FAIR      70  57  64 S10       29.94S
BUFFALO          N/A     72  50  45 S5          N/A
WYNDMERE         N/A     73  54  49 S8          N/A
 ***** THE ABOVE OBSERVATIONS ARE NON NWS ARE NOT QUALITY
       CONTROLLED AND MAY MIS-REPORT RAIN FOR SNOW...
$$

  *****  WEATHER ACROSS NORTHERN MINNESOTA  *****

CITY           SKY/WX    TMP DP  RH WIND       PRES   REMARKS
FLAG ISLAND    MOSUNNY   61  54  77 CALM      29.95S
WARROAD        SUNNY     61  55  82 E6        29.95F
ROSEAU         SUNNY     64  55  72 CALM      29.94S
HALLOCK        SUNNY     66  52  59 CALM      29.91F
THF RVR FALLS  CLOUDY    66  52  59 SW5       29.95F
HALSTAD        NOT AVBL
FOSSTON        MOSUNNY   66  52  59 S6        29.96S
BAUDETTE       SUNNY     62  53  72 CALM      29.95S
WASKISH        SUNNY     66  55  68 W5        29.96S
CROOKSTON      MOSUNNY   66  54  63 CALM      29.94R
$$
  *****  WEATHER ACROSS CENTRAL AND WEST MINNESOTA  *****

CITY           SKY/WX    TMP DP  RH WIND       PRES   REMARKS
BEMIDJI        SUNNY     66  51  57 S3        29.97S
PARK RAPIDS    MOSUNNY   68  49  50 SW3       29.97F
WADENA         SUNNY     70  52  52 S5        29.97F
DETROIT LAKES  SUNNY     70  54  56 S7        29.97F
MOORHEAD       SUNNY     66  54  63 S7        29.94F
FERGUS FALLS   SUNNY     70  54  56 S6        29.93F
ELBOW LAKE     FAIR      70  53  54 SW3       29.97F
MORRIS MN      SUNNY     72  54  53 SW7       29.95F
STAPLES        SUNNY     70  48  46 CALM      29.98S
WHEATON        SUNNY     75  55  50 S5        29.95F
$$
  *****  WEATHER ELSEWHERE ACROSS MINNESOTA  *****

CITY           SKY/WX    TMP DP  RH WIND       PRES   REMARKS
DULUTH         SUNNY     69  53  56 W9        29.97F
INTRNTL FALLS  SUNNY     63  53  70 NW7       29.95F
ELY            SUNNY     64  52  63 W7        29.96S
CLOQUET        SUNNY     68  52  56 W7        29.98S
BRAINERD       PTSUNNY   63  53  70 SW5       29.99S
HIBBING        SUNNY     65  52  62 VRB5      29.97S
ALEXANDRIA     SUNNY     68  52  56 SW6       30.00S
SAINT CLOUD    MOSUNNY   67  55  65 S7        30.00S
MINNEAPOLIS    PTSUNNY   70  58  65 S5        30.02S
$$

  *****  WEATHER ACROSS SOUTH DAKOTA  *****

CITY           SKY/WX    TMP DP  RH WIND       PRES   REMARKS
SIOUX FALLS    PTSUNNY   70  55  59 SE6       29.99S
BROOKINGS      MOSUNNY   64  56  75 S9        29.98R
WATERTOWN      SUNNY     68  56  65 S8        29.96R
HURON          PTSUNNY   63  59  87 S8        29.94R
SISSETON         N/A     76  52  43 SW10      29.92F
ABERDEEN       MOSUNNY   68  55  63 S6        29.93F
MITCHELL       CLOUDY    67  59  75 SE18G28   29.96F
PIERRE         PTSUNNY   65  58  78 SE15G21   29.89F
MOBRIDGE       SUNNY     66  56  70 S12       29.88F
RAPID CITY     PTSUNNY   57  54  89 SE3       29.87F
$$

  *****  SOME WEATHER IN NEARBY STATES *****

CITY           SKY/WX    TMP DP  RH WIND       PRES   REMARKS
GLASGOW MT     LGT RAIN  59  50  72 W3        29.92S
GREAT FALLS MT LGT RAIN  45  41  86 N7        30.08R
CHEYENNE WY    SUNNY     59  43  55 W5        30.07S
SCOTTSBLUFF NE SUNNY     60  51  72 NW3       29.98S
OMAHA NE       PTSUNNY   74  64  71 CALM      30.00F
DES MOINES IA  MOSUNNY   74  63  68 S3        30.02F
DAVENPORT IA   CLOUDY    75  60  59 CALM      30.06R
CHICAGO IL     MOSUNNY   75  59  57 CALM      30.03R
EAU CLAIRE WI  MOSUNNY   69  58  67 VRB3      30.01S
LA CROSSE WI   MOSUNNY   66  61  84 S5        30.03S
$$

  *****  SOME NATIONAL WEATHER *****

CITY           SKY/WX    TMP DP  RH WIND       PRES   REMARKS
LA GUARDIA NY  CLOUDY    69  68  96 NW5       30.00S
RALEIGH NC     CLOUDY    72  70  94 NE9       30.01F
ATLANTA GA     PTSUNNY   79  61  53 W5        30.05S
NEW ORLEANS LA PTSUNNY   83  73  72 NW6       30.04S
OKLAHOMA CITY  CLOUDY    67  65  93 S6        30.05R
ALBUQUERQUE NM PTSUNNY   61  44  53 NW5       30.14R
SALT LAKE CITY MOSUNNY   61  44  53 SE10      30.10S
LOS ANGELES CA CLOUDY    60  54  80 N5        30.01R
BOISE ID       MOSUNNY   53  39  59 NW9       30.15R
SEATTLE WA     MOSUNNY   52  44  74 NE7       30.31R
$$

*** WEATHER ACROSS MANITOBA...SASKATCHEWAN AND ONTARIO ***
                ***ONTARIO***

CITY           SKY/WX    TMP DP  RH WIND       PRES   REMARKS
GERALDTON      LGT RAIN  52  46  82 W8G20     29.80R
THUNDER BAY    PTSUNNY   63  52  67 W20G25    29.88R
SIOUX LOOKOUT  LGT RAIN  50  48  93 N9G18     29.93R
TORONTO        MOSUNNY   75  59  57 W14G21    29.92F
BIG TROUT LK   MOSUNNY   41  32  70 N8        30.00R
PICKLE LAKE    LGT RAIN  41  39  93 N6G17     29.91R FOG
DRYDEN         CLOUDY    54  48  82 NW10      29.95R
KENORA         PTSUNNY   54  52  94 N7        29.97S
$$
                *** MANITOBA***

CITY           SKY/WX    TMP DP  RH WIND       PRES   REMARKS
BRANDON        MOSUNNY   61  50  67 W3        29.90S
DAUPHIN        CLOUDY    54  52  94 NE3       29.94R
ISLAND LAKE    CLOUDY    46  45  93 E5        30.03
PILOT MOUND      N/A     64  50  59 SW5         N/A
THE PAS        CLOUDY    50  48  93 N6        29.96R FOG
THOMPSON       LGT RAIN  41  39  93 NE7       30.08R
WINNIPEG       MOSUNNY   61  54  77 E12       29.93R
LYNN LAKE      LGT RAIN  41  41 100 NE9       30.08R FOG
CHURCHILL      FLURRIES  27  25  93 NE12      30.28R WCI  16
GILLAM         PTSUNNY   34  28  80 NE8       30.16S
$$
                ***SASKATCHEWAN***

CITY           SKY/WX    TMP DP  RH WIND       PRES   REMARKS
ESTEVAN        PTSUNNY   61  52  72 SE2       29.89S
KINDERSLEY     CLOUDY    50  48  93 E21       29.87F
LLOYDMINSTER   CLOUDY    50  48  93 E3        29.97R
PRINCE ALBERT  MOSUNNY   52  46  82 E8        29.98S
REGINA         PTSUNNY   54  46  76 NE3       29.88S
YORKTON        CLOUDY    50  50 100 N9        29.93R FOG
N. BATTLEFORD  PTSUNNY   52  48  87 E12       29.96S   C1F1C2F2C3F3C4F4C5F5C6F6C7F7C8F8C9F9CaFaCbFbCcFcCdFdCe!



USA.gov is the U.S. government's official web portal to all federal, state and local government web resources and services.